Weather Roundup
Issued by NWS Corpus Christi, TX

Home | Current Version | Previous Version | Text Only | Print | Product List | Glossary On
Versions: 1 2 3 4 5 6 7 8 9 10 11 12 13 14 15 16 17 18 19 20 21 22 23 24 25 26 27 28 29 30 31 32 33 34 35 36 37 38 39 40 41 42 43 44 45 46 47 48 49 50
000
ASUS44 KCRP 300410
HRRCRP

SOUTH TEXAS REGIONAL WEATHER ROUNDUP
NATIONAL WEATHER SERVICE CORPUS CHRISTI TX
1100 PM CDT THU SEP 29 2016


TXZ229>244-300500-
...CORPUS CHRISTI AREA OBSERVATIONS...

CITY           SKY/WX    TMP DP  RH WIND       PRES   REMARKS
CORPUS CHRISTI PTCLDY    79  61  53 NE15      30.13R
NAS CORPUS CHR CLEAR     81  63  54 NE21      30.12R
ROCKPORT       CLEAR     76  59  55 NE12      30.13R
KINGSVILLE NAS PTCLDY    71  67  87 N6        30.13R
ALICE          CLEAR     73  63  70 NE6       30.14R
FALFURRIAS     CLEAR    N/A N/A N/A N3        30.12R
$$

...VICTORIA AREA OBSERVATIONS...

CITY           SKY/WX    TMP DP  RH WIND       PRES   REMARKS
VICTORIA       CLEAR     64  57  78 N7        30.16R
BEEVILLE       FAIR      71  57  61 NE9       30.15S
PLEASANTON     CLEAR     69  55  61 NE5       30.18S
SAN ANTONIO    PTCLDY    69  53  56 N7        30.21R
$$

...LAREDO AREA OBSERVATIONS...

CITY           SKY/WX    TMP DP  RH WIND       PRES   REMARKS
LAREDO         CLEAR     77  61  57 NE10      30.15R
COTULLA        CLEAR     77  56  48 E9        30.17R
DEL RIO        CLEAR     74  60  61 NE6       30.18R
MCALLEN        CLEAR     82  66  58 NE6       30.12R
HEBBRONVILLE   CLEAR     74  62  66 NE7       30.16R
$$

...OTHER TEXAS OBSERVATIONS...

CITY           SKY/WX    TMP DP  RH WIND       PRES   REMARKS
BROWNSVILLE    CLEAR     77  72  84 N5        30.09S
HOUSTON        CLEAR     66  56  70 N6        30.17S
COL. STATION   CLEAR     68  53  58 N7        30.20R
AUSTIN         PTCLDY    60  54  80 N8        30.21R
WACO           CLEAR     59  51  75 N6        30.23S
FORT WORTH     CLEAR     63  51  65 N5        30.23S
WICHITA FALLS  CLEAR     58  51  78 N6        30.27S
LUBBOCK        MOCLDY    57  48  72 SE7       30.33F
EL PASO        CLOUDY    74  43  32 E18       30.25R
$$

...MARINE OBSERVATIONS...

STATION/POSITION TIME  SKY/WX   TEMP    WIND        PRES    VSBY  WAVE   SWELL
                                AIR SEA DIR/SP/G                  HT/PER HT/PER
                 (UTC)          (F)     (DEG/KT/KT) (MB)    (MI)  (FT/S) (FT/S)
PORT ARANSAS     0300            80 85  360/ 12/ 14 1019.9R
BUOY 90 E PORT A 0350            83 86   30/ 16/ 19 1019.1R         3/ 4
BUOY 45 SE BAFFI 0350            83 84   70/ 10/ 10 1018.8R         2/ 4   2/ 4
BUOY 200 E PT IS 0350            84 87   30/ 12/ 14 1016.8R         2/ 4
BUOY 15 E GALVES 0350            78 85   10/ 17/ 21 1020.2S         3/ 4
$$



USA.gov is the U.S. government's official web portal to all federal, state and local government web resources and services.